www.pogodaiklimat.ru

Погода и климат >> Архив погоды >> Россия >> Ненецкий АО >> Амдерма


ПОГОДА в Амдерме

  • Прогноз погоды в Амдерме
  • Монитор погоды в Амдерме
  • Климат города

АРХИВ ПОГОДЫ в Амдерме

Время (UTC), дата Ветер
(напр.,м/с)
 
Видим.   Явления Облачность Т
(С)
Тd
(С)
f
(%)
Тe
(С)
Тes
(С)
Комфортность P
(гПа)
Po
(гПа)
Тmin
(С)
Tmax
(С)
R
(мм)
S
(см)
12 19.03 ЮЗ 12-14
{17}
10 км слабый ливневой снег {метель} 9/4 600 м
[Cb cap Ac cast Ci fib]
-0.5 -1.6 92 -10 -10 1007.7 1001.3
15 19.03 ЮЗ 11-15
{17}
10 км {ливн. осадки, метель} 10/10 600 м
[Sc]
0.0 -1.4 90 -9 -9 1008.6 1002.2 +0.2 0.0
18 19.03 ЮЗ 9-14
{16}
10 км {ливн. осадки, метель} 8/8 600 м
[Sc]
-1.5 -3.2 88 -10 -10 1008.7 1002.3
21 19.03 ЮЗ 10-15
{15}
4000 м слабый ливневой снег {метель} 10/10 300 м
[Cb cap]
-1.0 -1.9 94 -10 -10 1009.0 1002.6
00 20.03 ЮЗ 10-14
{15}
4000 м слабый ливневой снег {метель} 10/10 300 м
[Cb cap]
-0.9 -1.9 93 -10 -10 1009.4 1003.0
03 20.03 ЮЗ 9-14
{15}
10 км в посл. час ливневой снег {метель} 9/6 300 м
[Cb cap Ac trans Ci fib]
-0.7 -2.5 88 -9 -9 1009.9 1003.5 -1.7 0.0 22
06 20.03 Ю 13-15
{15}
10 км позёмок {ливн. осадки, метель} 9/0
[Ac trans Cc]
-1.9 -3.3 90 -12 -12 1010.0 1003.5 -2.1
09 20.03 Ю 10-13
{15}
10 км {метель} 9/9 600 м
[Sc]
-1.3 -2.4 92 -10 -10 1009.7 1003.3
12 20.03 ЮЗ 9-13
{14}
4000 м слабый ливневой снег {метель} 9/9 600 м
[Cb cap]
-1.2 -1.8 96 -10 -10 1010.3 1003.8
15 20.03 ЮЗ 8-10
{13}
4000 м слабый ливневой снег {метель} 10/10 300 м
[Cb cap]
-1.3 -1.7 97 -9 -9 1012.1 1005.7 -0.7
18 20.03 З 4
{10}
10 км {ливн. осадки, метель} 10/10 300 м
[Sc]
-1.2 -1.8 96 -7 -7 1013.9 1007.5
21 20.03 З 4 10 км 10/10 300 м
[Sc]
-2.2 -2.8 96 -8 -8 1015.2 1008.7
00 21.03 ЮЗ 3 10 км 10/10 300 м
[Sc]
-1.8 -2.2 97 -7 -7 1015.9 1009.4
03 21.03 Ю 6 4000 м дымка 10/10 300 м
[St]
-1.9 -2.1 99 -9 -9 1016.9 1010.4 -2.4 0.0 22
06 21.03 Ю 8
{10}
10 км 9/3 600 м
[Sc Ac cast Cs]
-2.0 -2.6 96 -10 -10 1016.9 1010.4
09 21.03 ЮЗ 8-11
{12}
4000 м осадки на расстоянии {ливн. осадки, метель} 10/10 600 м
[Cb cap]
-1.1 -1.7 96 -9 -9 1016.9 1010.4
12 21.03 Ю 8-11
{11}
4000 м дымка {ливн. осадки, метель} 10/8 300 м
[Sc As trans]
-2.1 -2.8 95 -10 -10 1016.4 1010.0
15 21.03 Ю 7
{13}
2000 м снег {метель} 10/10 300 м
[St]
-2.3 -2.7 97 -10 -10 1014.9 1008.4 -1.1 0.0
18 21.03 ЮЗ 8-11
{11}
4000 м слабый ливневой снег 9/9 300 м
[Cb cap]
-0.7 -1.1 97 -9 -9 1012.5 1006.1
21 21.03 ЮЗ 10-13
{13}
10 км позёмок {ливн. осадки, метель} 10/10 600 м
[Sc]
-1.3 -2.0 95 -10 -10 1012.4 1006.0
00 22.03 ЮЗ 7
{13}
10 км слабый ливневой снег {метель} 10/10 600 м
[Cb cap]
-1.6 -2.2 96 -9 -9 1012.9 1006.5
03 22.03 ЮЗ 8-11
{11}
4000 м слабый ливневой снег 9/6 600 м
[Cb cap Ac trans Ci fib]
-1.3 -1.7 97 -9 -9 1012.8 1006.4 -2.3 0.3 23
06 22.03 ЮЗ 6
{12}
4000 м дымка {ливн. осадки} 9/4 600 м
[Sc Ac trans]
-0.7 -1.1 97 -8 -7 1012.7 1006.3
09 22.03 Ю 7 10 км {ливн. осадки} 8/4 300 м
[Sc Ac trans]
-0.2 -1.4 92 -7 -7 1012.1 1005.7
12 22.03 ЮЗ 6 10 км 10/10 600 м
[Sc]
-1.8 -2.1 98 -9 -9 1012.1 1005.6
15 22.03 500 м туман н/о -2.1 -2.2 99 -10 -10 1011.6 1005.2 -0.1
18 22.03 ЮЗ 5 500 м туман [диам. гололёда 5 мм] ?/? -2.3 -2.4 99 -9 -9 1011.3 1004.8
21 22.03 Ю 4 4000 м дымка {туман} 10/10 300 м
[St]
-1.9 -2.0 99 -8 -8 1010.8 1004.3
00 23.03 ЮВ 4 4000 м дымка {туман} [диам. гололёда 5 мм] 10/10 300 м
[St]
-1.8 -1.9 99 -8 -8 1009.8 1003.4
03 23.03 Ю 7 10 км {ливн. осадки} [диам. гололёда 5 мм] 10/10 300 м
[Cu Sc]
-1.2 -1.4 99 -9 -9 1008.1 1001.7 -2.7 0.0 23
06 23.03 Ю 8-11
{11}
4000 м в посл. час ливневой снег 10/10 300 м
[Sc]
-0.3 -0.6 98 -8 -8 1005.9 999.5
09 23.03 Ю 10-12
{12}
4000 м слабый ливневой снег 9/9 300 м
[Cb cap]
-0.1 -0.5 97 -9 -9 1002.9 996.5
12 23.03 ЮЗ 6
{12}
4000 м дымка {ливн. осадки} 10/10 300 м
[St]
+0.2 -0.2 97 -7 -7 1001.0 994.6
15 23.03 Ю 9-11
{11}
4000 м слабый снег 10/10 300 м
[Sc]
-0.2 -0.5 98 -8 -8 999.2 992.9 +0.2 0.0
18 23.03 ЮЗ 10-13
{13}
4000 м слабый ливневой снег {метель} 10/10 300 м
[Cb cap]
-0.4 -0.6 99 -9 -9 998.1 991.7
21 23.03 ЮЗ 9-12
{14}
4000 м слабый ливневой снег {метель} 10/10 300 м
[Cb cap]
-0.5 -0.6 99 -9 -9 998.9 992.6
00 24.03 ЮЗ 7
{12}
10 км в посл. час ливневой снег 5/3 600 м
[Sc Ac trans]
-1.1 -1.5 97 -9 -9 998.9 992.6
03 24.03 ЮЗ 8-10
{13}
4000 м слабый ливневой снег {метель} 10/10 600 м
[Cb cap]
-1.0 -1.2 99 -9 -9 998.4 992.0 -1.2 0.2 22
06 24.03 ЮЗ 8-10
{11}
4000 м слабый ливневой снег {метель} 9/8 300 м
[Cb cap Ac trans]
-1.4 -2.1 95 -9 -9 998.2 991.9 -1.4
09 24.03 ЮЗ 8-12
{13}
4000 м слабый ливневой снег 9/8 600 м
[Cb cap Ac trans]
-1.3 -2.0 95 -9 -9 997.7 991.3
12 24.03 ЮЗ 7-10
{12}
10 км {ливн. осадки} 9/9 300 м
[St]
-0.3 -1.2 94 -8 -8 997.5 991.2
15 24.03 ЮЗ 8-11
{12}
10 км 9/9 300 м
[Sc]
-1.3 -2.0 95 -9 -9 997.8 991.5 -0.3
18 24.03 ЮЗ 9-12
{12}
4000 м слабый ливневой снег {метель} 9/9 300 м
[Cb cap]
-3.1 -4.2 92 -12 -12 996.9 990.5
21 24.03 Ю 9-11
{12}
4000 м слабый ливневой снег {метель} 10/10 300 м
[Cb cap]
-5.0 -5.6 96 -14 -14 995.6 989.2
00 25.03 ЮЗ 8-11
{12}
4000 м слабый ливневой снег {метель} 10/10 600 м
[Cb cap]
-2.4 -2.9 96 -11 -11 994.5 988.2
03 25.03 ЮЗ 8-11
{12}
4000 м слабый ливневой снег {метель} 10/10 600 м
[Cb cap]
-2.4 -2.9 96 -11 -11 994.5 988.2
06 25.03 З 6 10 км слабый ливневой снег {метель} 9/8 600 м
[Cb cap Ac trans]
-3.1 -3.8 95 -11 -10 995.0 988.6
09 25.03 З 4 10 км в посл. час ливневой снег 10/10 600 м
[Sc]
-2.4 -2.9 96 -9 -9 996.3 990.0
12 25.03 СЗ 5 10 км {ливн. осадки} 9/6 600 м
[Sc Ac trans Ci fib]
-2.7 -4.4 88 -9 -9 997.8 991.4
15 25.03 З 5
{10}
10 км 5/3 300 м
[Sc Ac trans Ci fib]
-5.0 -6.1 92 -12 -12 998.2 991.8 -2.0
18 25.03 ЮЗ 8-11
{14}
10 км позёмок {ливн. осадки, метель} 9/9 300 м
[Sc]
-4.0 -4.7 95 -13 -13 997.3 990.9
21 25.03 ЮЗ 11-15
{16}
4000 м слабый ливневой снег {метель} 10/10 300 м
[Cb cap]
-2.5 -2.9 97 -12 -12 994.3 988.0
00 26.03 З 9-13
{18}
4000 м слабый ливневой снег {метель} 10/10 300 м
[Cb cap]
-2.8 -3.3 96 -12 -12 992.7 986.4
03 26.03 СЗ 7-12
{15}
10 км позёмок {ливн. осадки, метель} 10/10 600 м
[Sc]
-2.8 -4.2 90 -11 -11 996.4 990.0 -5.0 0.8 24
06 26.03 ЮЗ 7
{12}
10 км {ливн. осадки, метель} 9/9 600 м
[Sc]
-3.4 -4.4 93 -12 -11 996.4 990.0
09 26.03 ЮЗ 11-16
{16}
4000 м метель {ливн. осадки} 9/9 600 м
[Sc]
-2.3 -3.0 95 -12 -12 995.6 989.3

 

Местоположение метеостанции Амдерма (Ненецкий АО, Россия): широта 69.77 долгота 61.68 высота над уровнем моря 48 м.

В архиве по умолчанию представлена погода в Амдерме за последнюю неделю. Архивные данные за месяц целиком и за предыдущие месяцы, начиная с января 2011 года, Вы можете получить, выбрав интересующий диапазон дат из раскрывающегося списка и нажав кнопку "Ввод!".

Внимание! Время в таблицах - всемирное. Для получения местного времени необходимо прибавить поправку, которая в Амдерме равна 3 ч.

Смотрите также архив погоды в соседних городах и на ближайших метеорологических станциях:

Погода на Мысе Белый Нос (Ненецкий АО, Россия) (60 км)
Погода в Имени Федорова (Ненецкий АО, Россия) (124 км)
Погода в Усть-Каре (Ненецкий АО, Россия) (139 км)
Погода в Варандее (Ненецкий АО, Россия) (179 км)
Погода в Inari Angeli (Финляндия) (186 км)
Погода в Марресаля (Ямало-Ненецкий АО, Россия) (197 км)
Погода в Воркуте (Коми, Россия) (271 км)
Погода на Мысе Константиновском (Ненецкий АО, Россия) (279 км)
Погода в Хорей-Вере (Ненецкий АО, Россия) (300 км)
Погода в Елецкой (Коми, Россия) (318 км)

Пояснения к столбцам:

Ветер - указаны скорость ветра в м/с - средняя за 10 мин, порывы в срок и между сроками (в фигурных скобках) и направление, откуда дует ветер: С - северный, СВ - северо-восточный, В - восточный, ЮВ - юго-восточный, Ю - южный, ЮЗ - юго-западный, З - западный, СЗ - северо-западный.
Видимость - горизонтальная дальность видимости в метрах или километрах. При видимости от 1 до 10 км при отсутствии осадков обычно наблюдается дымка, при ухудшении видимости до 1 км и менее - туман. В сухую погоду видимость может ухудшаться дымом, пылью или мглою.
Явления - указаны атмосферные явления, наблюдавшиеся в срок или в последний час перед сроком; фигурными скобками обозначены явления, наблюдавшиеся между сроками (за 1-3 часа до срока); квадратными скобками обозначены град или гололедные отложения с указанием их диаметра в мм.
Облачность - указаны через наклонную черту общая и нижняя облачность в баллах и высота нижней границы облаков в метрах; квадратными скобками обозначены формы облаков: Ci - перистые, Cs - перисто-слоистые, Cc - перисто-кучевые, Ac - высококучевые, As - высокослоистые, Sc - слоисто-кучевые, Ns - слоисто-дождевые, Cu - кучевые, Cb - кучево-дождевые. Подробнее классификацию облаков см. в Атласе облаков (PDF).
T - Температура воздуха - температура, измеренная на высоте 2 м над землей.
Td - Температура точки росы - температура, при понижении до которой содержащийся в воздухе водяной пар достигнет насыщения.
f - Относительная влажность воздуха - влажноcть воздуха, измеренная на высоте 2 м над землей.
Te - Эффективная температура - температура, которую ощущает одетый по сезону человек в тени. Характеристика душности погоды. При расчете учитывается влияние влажности воздуха и скорости ветра на теплоощущения человека.
Tes - Эффективная температура на солнце - температура, которую ощущает человек, с поправкой на солнечный нагрев. Характеристика знойности погоды. Зависит от высоты солнца над горизонтом, облачности и скорости ветра. Ночью, в пасмурную погоду, а также при ветре 12 м/с и более поправка равна нулю.
P - Атмосферное давление - приведенное к уровню моря атмосферное давление.
Po - Атмосферное давление - измеренное на уровне метеостанции атмосферное давление.
Tmin - Минимальная температура - минимум температуры воздуха на высоте 2 м над землей.
Tmax - Максимальная температура - максимум температуры воздуха на высоте 2 м над землей.
R - Количество осадков - Количество выпавших осадков, мм. При наведении курсора мыши на число - период времени, за который выпало указанное количество осадков.
S - Снежный покров - Высота снежного покрова, см. При наведении курсора мыши на число - состояние снежного покрова и степень покрытия местности в баллах.